Showing default

JILIN-01 GAOFEN 3F, 46458

Orbit data source: Space-Track

JILIN-01 GAOFEN 3F, 46458 is a Chinese payload satellite in SSO that was launched on Tue, 15 Sep 2020 UTC via a CHANG ZHENG 11 launch vehicle from the Yellow Sea Launch Area, China (YSLA). Payload-class satellites include a variety of spacecraft equipped with specific instruments for various scientific and technological missions. These include communications satellites like Starlink; space stations such as the ISS; scientific satellites like the Hubble; Earth observation satellites from companies like Planet Labs, Umbra, and HawkEye 360; GPS; miniature CubeSats for education and research; and military/defense satellites.

Loading next visibility...
Identifier
46458, 2020-065E
Orbit
SSO
Country
Flag of CNCN / PRC
Related business
None
Manufacturer
Unknown
Mission
Operational Commercial Imaging
Bus & Motor
Unknown
Mass
Unknown
Launch date (UTC)
2020-09-15 (6 years ago)
Launch vehicle
CHANG ZHENG 11
Launch site
Yellow Sea Launch Area, China (YSLA)
Object type
Payload
Rocket body
Debris
Shape & HBR
Box + 2 Pan, 0.8 m
Radar Cross Section
2.000 m², Medium (>0.1 m² and < 1m²)

Expand to show TLE details & history
Last TLE update: 2 days ago

TLE from 2 days ago
0 JILIN-01 GAOFEN 3F
1 46458U 20065E   26171.38801312  .00048437  00000-0  56899-3 0  9999
2 46458  97.2195 221.3920 0014467 136.2247 224.0161 15.61195567320207
Epoch: 2026-06-20T09:18Z
TLE epoch observation values (Epoch: 2026-06-20T09:18:44.333Z)
Latitude
0.00001°
Longitude
173.10392°
Altitude
394.398 km
Speed
7.67 km/s
True Right ascension
14h 45m 34s
True Declination
0° 00' 00"
Sunlit
Object was in full shadow at epoch
Visualization orbit readout
Latitude
Unknown
Longitude
Unknown
Altitude
Unknown
Speed
Unknown
Apparent Right ascension
Unknown
Apparent Declination
Unknown
Sunlit
N/A
Visualization observer readout
Local Sidereal Time
21:34:44
Azimuth
Unknown
Elevation
Unknown
Doppler factor
Unknown
Orbital elements
Apogee altitude
390.884 km
Perigee altitude
371.327 km
Semi-major axis
6,759.243 km
Eccentricity
0.00145
Inclination
97.2195°
RAAN
221.392°
Arg. of periapsis
136.2247°
True anomaly
223.90106°
Mean anomaly
224.0161°
Eccentric anomaly
223.95856°
Mean motion
3.90568 °/min
Orbital period
92.17 mins
BSTAR
0.00056899
Loading maneuver chart data...
Computing Atmospheric mass density...
Loading historical data...
Loading historical data...
Loading historical data...
Loading historical data...
Loading historical data...
Loading historical data...
Loading historical data...

Documentation

Showing up to 5 results
|